Starlink 31291

operational
NORAD ID: 59096 Int'l Des: 2024-041 Owner: SPXS Country: US Constellation: starlink
LEOCIRCULAR

About Starlink 31291

Description loading...

Live Position

Loading 3D Globe...

Upcoming Passes

Altitude History

Altitude vs Time

uPlot chart will show altitude changes over time

Two-Line Element Set

1 59096U 24041Y 25257.28644036 .00000468 00000-0 26525-4 0 9996
2 59096 42.9996 226.8649 0000822 266.5069 93.5688 15.27575605 87291
Epoch: Sep 14, 2025 • Age: 29 hours

Current Status

Altitude 482.3 km
Velocity 7.63 km/s
Sub-Earth Point 8.90°N, 141.99°W
Launch Date Feb 29, 2024
Age 1.5 years
Type internet

Technical Details

Classification Payload
Mass 730.00 kg
Dry Mass 700.00 kg
Total Mass 730.00 kg
Length 0.30 m
Diameter 4.10 m
Span 29.00 m
Shape Box + pan
Manufacturer SPXS
Bus Type Starlink V2M
Phase Status In Orbit
Owner/State SPXS/US

Large Constellations

Loading constellations...